Time,TemperatureF,DewpointF,PressureIn,WindDirection,WindDirectionDegrees,WindSpeedMPH,WindSpeedGustMPH,Humidity,HourlyPrecipIn,Conditions,Clouds,dailyrainin,SolarRadiationWatts/m^2,SoftwareType,DateUTC
2013-04-08 00:01:00,49.4,38.0,29.93,NNE,13,4.0,-999.0,66,-99.99,,,0.00,0,weatherlink.com 1.10,2013-04-08 04:01:00,
2013-04-08 00:17:00,48.7,39.0,29.93,NNE,25,4.0,-999.0,68,-99.99,,,0.00,0,weatherlink.com 1.10,2013-04-08 04:17:00,
2013-04-08 00:31:00,48.5,38.0,29.94,ENE,68,3.0,-999.0,68,-99.99,,,0.00,0,weatherlink.com 1.10,2013-04-08 04:31:00,
2013-04-08 00:46:00,48.3,38.0,29.93,NE,48,1.0,-999.0,68,-99.99,,,0.00,0,weatherlink.com 1.10,2013-04-08 04:46:00,
2013-04-08 01:01:00,47.6,38.0,29.93,NNE,26,3.0,-999.0,69,-99.99,,,0.00,0,weatherlink.com 1.10,2013-04-08 05:01:00,
2013-04-08 01:16:00,47.5,38.0,29.93,NNE,31,3.0,-999.0,70,-99.99,,,0.00,0,weatherlink.com 1.10,2013-04-08 05:16:00,
2013-04-08 01:31:00,47.2,38.0,29.93,ENE,77,0.0,-999.0,71,-99.99,,,0.00,0,weatherlink.com 1.10,2013-04-08 05:31:00,
2013-04-08 01:46:00,46.9,38.0,29.93,ESE,119,2.0,-999.0,72,-99.99,,,0.00,0,weatherlink.com 1.10,2013-04-08 05:46:00,
2013-04-08 02:01:00,46.7,38.0,29.93,NE,45,1.0,-999.0,72,-99.99,,,0.00,0,weatherlink.com 1.10,2013-04-08 06:01:00,
2013-04-08 02:16:00,47.0,38.0,29.93,ESE,105,1.0,-999.0,72,-99.99,,,0.00,0,weatherlink.com 1.10,2013-04-08 06:16:00,
2013-04-08 02:31:00,47.2,38.0,29.92,ENE,59,3.0,-999.0,71,-99.99,,,0.00,0,weatherlink.com 1.10,2013-04-08 06:31:00,
2013-04-08 02:46:00,46.9,38.0,29.92,East,83,1.0,-999.0,71,-99.99,,,0.00,0,weatherlink.com 1.10,2013-04-08 06:46:00,
2013-04-08 03:01:00,46.9,38.0,29.92,ESE,121,0.0,-999.0,72,-99.99,,,0.00,0,weatherlink.com 1.10,2013-04-08 07:01:00,
2013-04-08 03:16:00,46.2,38.0,29.91,ENE,77,1.0,-999.0,73,-99.99,,,0.00,0,weatherlink.com 1.10,2013-04-08 07:16:00,
2013-04-08 03:31:00,46.1,38.0,29.90,East,81,2.0,-999.0,73,-99.99,,,0.00,0,weatherlink.com 1.10,2013-04-08 07:31:00,
2013-04-08 03:46:00,46.8,38.0,29.89,ENE,64,2.0,-999.0,72,-99.99,,,0.00,0,weatherlink.com 1.10,2013-04-08 07:46:00,
2013-04-08 04:01:00,46.7,38.0,29.88,SE,130,2.0,-999.0,73,-99.99,,,0.00,0,weatherlink.com 1.10,2013-04-08 08:01:00,
2013-04-08 04:16:00,46.7,38.0,29.88,SSE,162,4.0,-999.0,72,-99.99,,,0.00,0,weatherlink.com 1.10,2013-04-08 08:16:00,
2013-04-08 04:32:00,46.4,38.0,29.87,ENE,57,3.0,-999.0,73,-99.99,,,0.00,0,weatherlink.com 1.10,2013-04-08 08:32:00,
2013-04-08 04:46:00,46.5,38.0,29.87,SE,135,1.0,-999.0,73,-99.99,,,0.00,0,weatherlink.com 1.10,2013-04-08 08:46:00,
2013-04-08 05:01:00,46.4,38.0,29.86,NE,43,2.0,-999.0,73,-99.99,,,0.00,0,weatherlink.com 1.10,2013-04-08 09:01:00,
2013-04-08 05:31:00,46.5,39.0,29.86,NE,43,3.0,-999.0,74,-99.99,,,0.00,0,weatherlink.com 1.10,2013-04-08 09:31:00,
2013-04-08 05:46:00,46.7,39.0,29.85,ENE,73,2.0,-999.0,75,-99.99,,,0.00,0,weatherlink.com 1.10,2013-04-08 09:46:00,
2013-04-08 06:01:00,46.7,39.0,29.85,East,97,5.0,-999.0,75,-99.99,,,0.00,0,weatherlink.com 1.10,2013-04-08 10:01:00,
2013-04-08 06:16:00,46.8,39.0,29.84,ENE,76,1.0,-999.0,75,-99.99,,,0.00,0,weatherlink.com 1.10,2013-04-08 10:16:00,
2013-04-08 06:31:00,46.6,39.0,29.84,SE,139,0.0,-999.0,76,-99.99,,,0.00,0,weatherlink.com 1.10,2013-04-08 10:31:00,
2013-04-08 06:46:00,46.5,40.0,29.85,East,95,2.0,-999.0,77,-99.99,,,0.00,0,weatherlink.com 1.10,2013-04-08 10:46:00,
2013-04-08 07:01:00,46.6,40.0,29.85,East,85,1.0,-999.0,79,-99.99,,,0.00,0,weatherlink.com 1.10,2013-04-08 11:01:00,
2013-04-08 07:16:00,46.6,41.0,29.85,ESE,121,1.0,-999.0,80,-99.99,,,0.00,0,weatherlink.com 1.10,2013-04-08 11:16:00,
2013-04-08 07:31:00,46.7,41.0,29.85,ESE,106,2.0,-999.0,81,-99.99,,,0.00,0,weatherlink.com 1.10,2013-04-08 11:31:00,
2013-04-08 07:46:00,46.7,42.0,29.85,East,83,3.0,-999.0,83,-99.99,,,0.00,5,weatherlink.com 1.10,2013-04-08 11:46:00,
2013-04-08 08:01:00,46.5,42.0,29.85,SE,138,3.0,-999.0,85,-99.99,,,0.00,9,weatherlink.com 1.10,2013-04-08 12:01:00,
2013-04-08 08:16:00,46.3,43.0,29.84,East,88,3.0,-999.0,88,-99.99,,,0.00,14,weatherlink.com 1.10,2013-04-08 12:16:00,
2013-04-08 08:31:00,46.6,44.0,29.83,East,81,3.0,-999.0,89,-99.99,,,0.01,12,weatherlink.com 1.10,2013-04-08 12:31:00,
2013-04-08 08:46:00,47.1,44.0,29.82,East,84,3.0,-999.0,90,-99.99,,,0.01,74,weatherlink.com 1.10,2013-04-08 12:46:00,
2013-04-08 09:01:00,49.3,47.0,29.80,ESE,122,4.0,-999.0,91,-99.99,,,0.01,88,weatherlink.com 1.10,2013-04-08 13:01:00,
2013-04-08 09:31:00,52.9,50.0,29.78,SE,144,14.0,-999.0,90,-99.99,,,0.01,199,weatherlink.com 1.10,2013-04-08 13:31:00,
2013-04-08 09:46:00,54.3,51.0,29.77,SE,135,12.0,-999.0,89,-99.99,,,0.01,142,weatherlink.com 1.10,2013-04-08 13:46:00,
2013-04-08 10:01:00,56.8,53.0,29.77,SSE,155,11.0,-999.0,86,-99.99,,,0.01,90,weatherlink.com 1.10,2013-04-08 14:01:00,
2013-04-08 10:16:00,59.2,53.0,29.75,SSE,163,15.0,-999.0,81,-99.99,,,0.01,160,weatherlink.com 1.10,2013-04-08 14:16:00,
2013-04-08 10:31:00,59.9,53.0,29.74,SSE,158,12.0,-999.0,77,-99.99,,,0.01,81,weatherlink.com 1.10,2013-04-08 14:31:00,
2013-04-08 10:46:00,60.5,53.0,29.74,South,176,16.0,-999.0,77,-99.99,,,0.01,42,weatherlink.com 1.10,2013-04-08 14:46:00,
2013-04-08 11:16:00,59.2,53.0,29.74,South,170,14.0,-999.0,81,-99.99,,,0.03,146,weatherlink.com 1.10,2013-04-08 15:16:00,
2013-04-08 11:31:00,60.5,54.0,29.75,South,181,16.0,-999.0,80,-99.99,,,0.03,283,weatherlink.com 1.10,2013-04-08 15:31:00,
2013-04-08 12:01:00,63.4,56.0,29.74,South,186,20.0,-999.0,78,-99.99,,,0.03,432,weatherlink.com 1.10,2013-04-08 16:01:00,
2013-04-08 12:16:00,64.8,56.0,29.74,SSW,199,20.0,-999.0,72,-99.99,,,0.03,325,weatherlink.com 1.10,2013-04-08 16:16:00,
2013-04-08 12:31:00,64.8,56.0,29.74,SSW,210,18.0,-999.0,73,-99.99,,,0.03,260,weatherlink.com 1.10,2013-04-08 16:31:00,
2013-04-08 12:46:00,65.5,56.0,29.75,SSW,206,20.0,-999.0,71,-99.99,,,0.03,318,weatherlink.com 1.10,2013-04-08 16:46:00,
2013-04-08 13:01:00,66.6,57.0,29.74,SSW,195,17.0,-999.0,70,-99.99,,,0.03,466,weatherlink.com 1.10,2013-04-08 17:01:00,
2013-04-08 13:16:00,65.8,56.0,29.74,SSW,207,16.0,-999.0,71,-99.99,,,0.03,156,weatherlink.com 1.10,2013-04-08 17:16:00,
2013-04-08 13:31:00,66.8,57.0,29.74,SW,226,28.0,-999.0,70,-99.99,,,0.03,269,weatherlink.com 1.10,2013-04-08 17:31:00,
2013-04-08 14:01:00,67.6,57.0,29.74,SW,235,19.0,-999.0,68,-99.99,,,0.03,255,weatherlink.com 1.10,2013-04-08 18:01:00,
2013-04-08 14:17:00,68.2,57.0,29.74,SSW,210,14.0,-999.0,68,-99.99,,,0.03,385,weatherlink.com 1.10,2013-04-08 18:17:00,
2013-04-08 14:31:00,69.5,57.0,29.74,West,265,19.0,-999.0,65,-99.99,,,0.03,476,weatherlink.com 1.10,2013-04-08 18:31:00,
2013-04-08 14:46:00,70.7,57.0,29.74,SSW,210,10.0,-999.0,62,-99.99,,,0.03,838,weatherlink.com 1.10,2013-04-08 18:46:00,
2013-04-08 15:01:00,71.0,56.0,29.74,SSW,210,25.0,-999.0,60,-99.99,,,0.03,858,weatherlink.com 1.10,2013-04-08 19:01:00,
2013-04-08 15:16:00,71.2,56.0,29.74,SW,216,20.0,-999.0,60,-99.99,,,0.03,297,weatherlink.com 1.10,2013-04-08 19:16:00,
2013-04-08 15:31:00,71.0,56.0,29.74,SSW,194,16.0,-999.0,59,-99.99,,,0.03,288,weatherlink.com 1.10,2013-04-08 19:31:00,
2013-04-08 16:01:00,72.2,55.0,29.74,WSW,258,14.0,-999.0,56,-99.99,,,0.03,257,weatherlink.com 1.10,2013-04-08 20:01:00,
2013-04-08 16:16:00,72.5,55.0,29.74,WSW,241,12.0,-999.0,54,-99.99,,,0.03,777,weatherlink.com 1.10,2013-04-08 20:16:00,
2013-04-08 16:31:00,73.0,55.0,29.75,WSW,250,18.0,-999.0,53,-99.99,,,0.03,738,weatherlink.com 1.10,2013-04-08 20:31:00,
2013-04-08 16:46:00,72.6,55.0,29.75,WSW,256,11.0,-999.0,54,-99.99,,,0.03,308,weatherlink.com 1.10,2013-04-08 20:46:00,
2013-04-08 17:01:00,72.6,55.0,29.75,SW,220,14.0,-999.0,54,-99.99,,,0.03,522,weatherlink.com 1.10,2013-04-08 21:01:00,
2013-04-08 17:16:00,72.3,55.0,29.75,SW,235,13.0,-999.0,55,-99.99,,,0.03,283,weatherlink.com 1.10,2013-04-08 21:16:00,
2013-04-08 17:31:00,73.1,55.0,29.76,WSW,238,16.0,-999.0,53,-99.99,,,0.03,325,weatherlink.com 1.10,2013-04-08 21:31:00,
2013-04-08 17:47:00,72.8,55.0,29.77,WSW,258,16.0,-999.0,54,-99.99,,,0.03,397,weatherlink.com 1.10,2013-04-08 21:47:00,
2013-04-08 18:01:00,72.4,54.0,29.77,SW,218,12.0,-999.0,53,-99.99,,,0.03,144,weatherlink.com 1.10,2013-04-08 22:01:00,
2013-04-08 18:17:00,72.4,55.0,29.78,WSW,244,9.0,-999.0,54,-99.99,,,0.03,134,weatherlink.com 1.10,2013-04-08 22:17:00,
2013-04-08 18:31:00,72.7,54.0,29.79,West,269,12.0,-999.0,53,-99.99,,,0.03,237,weatherlink.com 1.10,2013-04-08 22:31:00,
2013-04-08 18:47:00,72.8,55.0,29.79,SW,215,16.0,-999.0,53,-99.99,,,0.03,79,weatherlink.com 1.10,2013-04-08 22:47:00,
2013-04-08 19:01:00,72.1,54.0,29.80,West,278,9.0,-999.0,54,-99.99,,,0.03,39,weatherlink.com 1.10,2013-04-08 23:01:00,
2013-04-08 19:16:00,70.8,55.0,29.80,WSW,245,5.0,-999.0,58,-99.99,,,0.04,33,weatherlink.com 1.10,2013-04-08 23:16:00,
2013-04-08 19:31:00,70.1,55.0,29.80,WNW,287,7.0,-999.0,60,-99.99,,,0.04,16,weatherlink.com 1.10,2013-04-08 23:31:00,
2013-04-08 19:46:00,70.1,55.0,29.81,WSW,249,4.0,-999.0,60,-99.99,,,0.04,12,weatherlink.com 1.10,2013-04-08 23:46:00,
2013-04-08 20:01:00,70.1,55.0,29.82,West,281,8.0,-999.0,60,-99.99,,,0.04,0,weatherlink.com 1.10,2013-04-09 00:01:00,
2013-04-08 20:31:00,66.5,53.0,29.84,NNW,328,8.0,-999.0,62,-99.99,,,0.04,0,weatherlink.com 1.10,2013-04-09 00:31:00,
2013-04-08 20:46:00,63.1,52.0,29.87,NNW,347,4.0,-999.0,67,-99.99,,,0.04,0,weatherlink.com 1.10,2013-04-09 00:46:00,
2013-04-08 21:01:00,61.7,52.0,29.87,North,354,2.0,-999.0,70,-99.99,,,0.04,0,weatherlink.com 1.10,2013-04-09 01:01:00,
2013-04-08 21:16:00,60.4,51.0,29.88,North,354,2.0,-999.0,71,-99.99,,,0.04,0,weatherlink.com 1.10,2013-04-09 01:16:00,
2013-04-08 21:31:00,58.7,50.0,29.90,ENE,58,5.0,-999.0,74,-99.99,,,0.04,0,weatherlink.com 1.10,2013-04-09 01:31:00,
2013-04-08 21:46:00,57.5,50.0,29.91,NNW,343,2.0,-999.0,76,-99.99,,,0.04,0,weatherlink.com 1.10,2013-04-09 01:46:00,
2013-04-08 22:01:00,56.7,50.0,29.92,NNE,25,0.0,-999.0,77,-99.99,,,0.04,0,weatherlink.com 1.10,2013-04-09 02:01:00,
2013-04-08 22:16:00,56.6,50.0,29.92,NNE,21,5.0,-999.0,79,-99.99,,,0.07,0,weatherlink.com 1.10,2013-04-09 02:16:00,
2013-04-08 22:32:00,56.0,50.0,29.93,North,349,1.0,-999.0,80,-99.99,,,0.07,0,weatherlink.com 1.10,2013-04-09 02:32:00,
2013-04-08 22:46:00,55.9,50.0,29.92,North,359,2.0,-999.0,81,-99.99,,,0.07,0,weatherlink.com 1.10,2013-04-09 02:46:00,
2013-04-08 23:01:00,55.4,49.0,29.93,NE,39,1.0,-999.0,80,-99.99,,,0.07,0,weatherlink.com 1.10,2013-04-09 03:01:00,
2013-04-08 23:16:00,55.4,49.0,29.94,NNE,23,0.0,-999.0,80,-99.99,,,0.07,0,weatherlink.com 1.10,2013-04-09 03:16:00,
2013-04-08 23:31:00,55.3,49.0,29.94,NNE,23,0.0,-999.0,79,-99.99,,,0.07,0,weatherlink.com 1.10,2013-04-09 03:31:00,
2013-04-08 23:47:00,55.1,49.0,29.94,NNE,31,2.0,-999.0,79,-99.99,,,0.07,0,weatherlink.com 1.10,2013-04-09 03:47:00,